Total_Precipitation_Accumulation
0.00 0.00 0.00 0.04 0.23 0.40 0.50 0.39 0.29 0.16 0.22 0.22 0.24 0.24 0.28 0.35 0.44 0.43 0.12 0.01 0.00 0.00 0.01 0.05 0.11 0.11 0.09 0.08 0.09 0.12 0.13 0.13 0.12 0.12 0.12 0.11 0.07 0.05 0.03 0.02 0.02 0.02 0.02 0.02 0.02 0.03 0.02 0.02 0.02
0.00 0.00 0.00 0.03 0.18 0.40 0.46 0.38 0.28 0.20 0.24 0.28 0.41 0.40 0.29 0.27 0.27 0.15 0.04 0.01 0.00 0.00 0.01 0.02 0.07 0.10 0.10 0.09 0.09 0.11 0.11 0.10 0.09 0.08 0.08 0.08 0.06 0.03 0.03 0.03 0.02 0.03 0.03 0.03 0.02 0.03 0.03 0.02 0.02
0.00 0.00 0.01 0.03 0.10 0.20 0.23 0.16 0.17 0.22 0.31 0.40 0.45 0.43 0.31 0.25 0.18 0.08 0.03 0.01 0.02 0.01 0.01 0.02 0.06 0.08 0.09 0.10 0.10 0.10 0.09 0.09 0.08 0.07 0.07 0.06 0.05 0.03 0.03 0.03 0.04 0.05 0.06 0.06 0.05 0.05 0.04 0.03 0.02
0.00 0.00 0.02 0.02 0.03 0.04 0.06 0.10 0.16 0.27 0.46 0.69 0.68 0.46 0.24 0.17 0.12 0.08 0.03 0.01 0.02 0.02 0.01 0.04 0.07 0.08 0.09 0.09 0.09 0.09 0.09 0.09 0.09 0.08 0.07 0.06 0.05 0.05 0.05 0.04 0.05 0.07 0.09 0.10 0.10 0.09 0.07 0.03 0.02
0.00 0.01 0.02 0.01 0.02 0.02 0.04 0.11 0.21 0.35 0.50 0.68 0.70 0.50 0.31 0.21 0.15 0.11 0.05 0.03 0.02 0.02 0.02 0.04 0.09 0.10 0.10 0.11 0.13 0.11 0.10 0.09 0.09 0.09 0.09 0.09 0.08 0.07 0.07 0.07 0.07 0.08 0.10 0.11 0.11 0.12 0.09 0.05 0.03
0.00 0.00 0.01 0.01 0.01 0.02 0.06 0.13 0.23 0.35 0.49 0.62 0.84 0.72 0.41 0.29 0.26 0.18 0.09 0.06 0.03 0.03 0.03 0.06 0.12 0.15 0.15 0.15 0.16 0.15 0.13 0.11 0.11 0.11 0.11 0.11 0.10 0.10 0.11 0.11 0.11 0.10 0.11 0.12 0.13 0.14 0.13 0.09 0.06
0.00 0.00 0.00 0.00 0.01 0.04 0.06 0.12 0.23 0.36 0.49 0.72 0.95 0.88 0.53 0.32 0.31 0.25 0.16 0.10 0.08 0.05 0.05 0.07 0.10 0.13 0.14 0.19 0.21 0.20 0.17 0.15 0.14 0.15 0.14 0.12 0.11 0.13 0.14 0.17 0.18 0.18 0.18 0.16 0.17 0.18 0.19 0.16 0.12
0.00 0.00 0.00 0.00 0.01 0.04 0.10 0.15 0.27 0.45 0.61 0.80 0.93 0.91 0.80 0.47 0.33 0.31 0.24 0.17 0.17 0.13 0.09 0.11 0.13 0.16 0.16 0.18 0.21 0.21 0.19 0.18 0.17 0.17 0.17 0.16 0.17 0.21 0.27 0.28 0.27 0.27 0.28 0.30 0.32 0.33 0.35 0.34 0.28
0.00 0.00 0.00 0.00 0.01 0.09 0.13 0.17 0.23 0.32 0.47 0.64 0.81 0.84 0.67 0.47 0.43 0.49 0.43 0.30 0.25 0.20 0.18 0.23 0.23 0.20 0.23 0.24 0.25 0.31 0.32 0.34 0.36 0.41 0.37 0.34 0.36 0.49 0.60 0.53 0.52 0.52 0.57 0.63 0.69 0.70 0.72 0.69 0.53
0.00 0.00 0.00 0.00 0.00 0.05 0.11 0.15 0.23 0.30 0.62 1.07 1.09 0.76 0.52 0.56 0.63 0.68 0.64 0.51 0.41 0.33 0.29 0.31 0.33 0.32 0.34 0.37 0.56 0.73 0.69 0.79 0.75 0.86 0.78 0.77 0.79 0.67 0.54 0.64 0.75 0.86 1.06 1.16 1.23 1.28 1.29 1.16 0.93
0.00 0.00 0.00 0.00 0.01 0.01 0.04 0.10 0.18 0.35 0.77 1.32 1.44 1.06 0.83 0.80 0.88 0.79 0.78 0.77 0.68 0.58 0.45 0.37 0.45 0.44 0.47 0.62 0.82 0.97 1.00 1.07 1.04 1.09 1.12 1.21 1.19 1.00 0.87 1.04 1.26 1.38 1.52 1.61 1.84 1.90 1.58 1.53 1.52
0.00 0.00 0.00 0.00 0.01 0.01 0.08 0.15 0.23 0.28 0.66 0.97 0.93 0.77 0.80 0.89 0.96 0.94 0.92 0.96 0.85 0.78 0.74 0.71 0.76 0.75 0.79 0.87 0.91 0.96 0.90 0.95 1.04 1.14 1.25 1.38 1.36 1.37 1.34 1.38 1.48 1.61 1.80 2.01 2.11 2.11 1.99 2.06 2.01
0.00 0.00 0.00 0.01 0.02 0.03 0.09 0.12 0.21 0.34 0.43 0.55 0.52 0.62 0.90 1.03 1.10 1.14 1.12 1.05 1.07 1.16 1.20 1.17 1.12 1.05 0.98 0.88 0.84 0.78 0.76 0.76 0.85 0.94 1.00 1.08 1.29 1.43 1.44 1.29 1.28 1.34 1.57 1.88 2.18 2.21 2.41 2.47 2.25
0.00 0.00 0.00 0.02 0.02 0.03 0.06 0.08 0.18 0.37 0.42 0.53 0.65 0.75 0.99 1.21 1.31 1.37 1.59 1.66 1.75 1.72 1.65 1.60 1.43 1.23 1.13 1.03 0.89 0.80 0.71 0.72 0.74 0.74 0.82 0.97 1.10 1.26 1.23 1.22 1.27 1.31 1.33 1.48 1.86 2.10 2.29 2.21 1.98
0.00 0.02 0.04 0.04 0.02 0.03 0.04 0.14 0.32 0.46 0.65 0.68 0.81 0.93 1.11 1.45 1.64 1.86 2.09 2.39 2.59 2.61 2.23 1.83 1.54 1.32 1.20 1.15 1.01 0.87 0.76 0.70 0.70 0.65 0.71 0.80 0.87 0.98 1.02 1.02 1.01 1.07 1.09 1.13 1.27 1.47 1.64 1.57 1.46
0.01 0.07 0.16 0.08 0.03 0.05 0.09 0.39 0.59 0.50 0.79 1.10 1.00 1.18 1.45 1.76 1.95 2.23 2.57 3.00 3.34 3.35 2.85 2.17 1.81 1.74 1.59 1.40 1.06 0.81 0.70 0.60 0.52 0.49 0.50 0.54 0.57 0.59 0.62 0.63 0.61 0.64 0.64 0.68 0.78 0.88 0.99 1.07 1.15
0.03 0.06 0.13 0.15 0.08 0.07 0.16 0.56 0.72 0.51 0.63 0.92 1.12 1.30 1.62 1.85 1.97 2.14 2.36 2.86 3.37 3.73 3.49 2.78 2.53 2.49 1.87 1.19 0.81 0.63 0.52 0.41 0.36 0.37 0.35 0.37 0.40 0.41 0.45 0.44 0.43 0.41 0.39 0.40 0.42 0.52 0.62 0.71 0.78
0.02 0.04 0.09 0.19 0.14 0.14 0.22 0.42 0.67 0.68 0.82 1.05 1.17 1.26 1.49 1.57 1.59 1.74 1.84 1.89 2.45 2.83 2.64 2.39 2.30 1.88 1.26 0.76 0.51 0.36 0.30 0.25 0.21 0.25 0.27 0.28 0.31 0.33 0.37 0.36 0.34 0.31 0.28 0.30 0.35 0.40 0.44 0.44 0.48
0.02 0.03 0.08 0.13 0.14 0.21 0.34 0.44 0.62 0.74 0.94 1.12 1.15 1.09 1.11 1.19 1.29 1.35 1.34 1.20 1.32 1.42 1.34 1.36 1.29 1.09 0.71 0.48 0.28 0.20 0.17 0.15 0.14 0.16 0.16 0.19 0.23 0.28 0.35 0.30 0.33 0.30 0.25 0.25 0.27 0.30 0.31 0.29 0.29
0.03 0.05 0.10 0.13 0.13 0.18 0.32 0.56 0.69 0.75 0.77 0.86 0.94 0.90 0.88 0.92 0.95 0.90 0.83 0.88 0.79 0.81 0.81 0.78 0.78 0.64 0.42 0.28 0.20 0.17 0.13 0.09 0.08 0.07 0.09 0.09 0.12 0.17 0.23 0.31 0.25 0.26 0.26 0.25 0.25 0.27 0.25 0.22 0.24
0.04 0.05 0.06 0.10 0.10 0.18 0.32 0.76 0.82 0.71 0.63 0.57 0.67 0.71 0.66 0.65 0.60 0.51 0.48 0.48 0.62 0.79 0.70 0.52 0.50 0.40 0.28 0.19 0.14 0.12 0.12 0.11 0.09 0.08 0.07 0.08 0.07 0.09 0.14 0.21 0.24 0.27 0.25 0.28 0.32 0.30 0.27 0.21 0.19
0.03 0.03 0.02 0.02 0.06 0.28 0.39 0.79 0.84 0.69 0.67 0.51 0.48 0.50 0.38 0.31 0.32 0.34 0.33 0.34 0.42 0.52 0.51 0.45 0.40 0.34 0.22 0.15 0.11 0.10 0.09 0.09 0.08 0.07 0.07 0.07 0.06 0.07 0.08 0.10 0.15 0.22 0.26 0.33 0.26 0.29 0.30 0.26 0.19
0.01 0.01 0.01 0.03 0.08 0.21 0.33 0.64 0.82 0.61 0.68 0.47 0.30 0.20 0.13 0.11 0.12 0.19 0.21 0.23 0.23 0.23 0.32 0.35 0.41 0.41 0.27 0.20 0.14 0.12 0.10 0.08 0.07 0.07 0.09 0.09 0.10 0.11 0.12 0.12 0.11 0.12 0.19 0.26 0.29 0.35 0.32 0.32 0.27
0.01 0.01 0.07 0.15 0.24 0.48 0.48 0.45 0.69 0.50 0.36 0.20 0.12 0.07 0.05 0.04 0.06 0.10 0.12 0.15 0.17 0.17 0.19 0.23 0.32 0.37 0.28 0.21 0.18 0.18 0.18 0.16 0.14 0.13 0.13 0.15 0.18 0.20 0.19 0.20 0.20 0.20 0.18 0.17 0.19 0.24 0.30 0.35 0.36
0.01 0.02 0.16 0.34 0.54 0.66 0.35 0.45 0.74 0.35 0.19 0.09 0.06 0.03 0.02 0.02 0.03 0.05 0.07 0.09 0.11 0.12 0.11 0.11 0.16 0.21 0.18 0.15 0.14 0.18 0.27 0.33 0.33 0.27 0.24 0.21 0.21 0.23 0.23 0.23 0.24 0.27 0.28 0.25 0.20 0.16 0.20 0.28 0.33
0.01 0.01 0.04 0.09 0.17 0.26 0.28 0.84 0.67 0.18 0.09 0.05 0.02 0.02 0.02 0.01 0.01 0.02 0.04 0.05 0.05 0.06 0.06 0.06 0.09 0.10 0.09 0.08 0.10 0.10 0.14 0.19 0.27 0.34 0.31 0.31 0.32 0.27 0.23 0.21 0.22 0.26 0.30 0.31 0.28 0.22 0.20 0.22 0.26
0.01 0.00 0.01 0.02 0.04 0.15 0.39 0.55 0.27 0.07 0.04 0.02 0.01 0.01 0.01 0.00 0.00 0.00 0.01 0.01 0.02 0.03 0.03 0.03 0.05 0.07 0.06 0.04 0.04 0.04 0.04 0.05 0.08 0.13 0.16 0.21 0.31 0.31 0.24 0.20 0.19 0.22 0.25 0.30 0.31 0.30 0.29 0.27 0.24
0.02 0.01 0.01 0.01 0.03 0.11 0.27 0.47 0.43 0.15 0.05 0.02 0.01 0.01 0.00 0.00 0.00 0.00 0.00 0.00 0.01 0.03 0.03 0.02 0.03 0.04 0.04 0.03 0.02 0.01 0.02 0.03 0.04 0.05 0.05 0.07 0.11 0.15 0.15 0.15 0.15 0.17 0.19 0.23 0.29 0.34 0.40 0.42 0.38
0.03 0.01 0.01 0.01 0.02 0.04 0.15 0.27 0.27 0.14 0.07 0.03 0.01 0.01 0.01 0.01 0.00 0.00 0.00 0.00 0.00 0.01 0.01 0.02 0.03 0.03 0.02 0.02 0.02 0.02 0.02 0.01 0.02 0.03 0.03 0.03 0.03 0.03 0.04 0.06 0.08 0.10 0.12 0.15 0.21 0.27 0.38 0.52 0.59
0.03 0.03 0.02 0.02 0.02 0.03 0.04 0.08 0.06 0.05 0.05 0.02 0.01 0.01 0.02 0.01 0.00 0.00 0.00 0.00 0.00 0.01 0.01 0.01 0.03 0.02 0.01 0.01 0.02 0.02 0.02 0.02 0.03 0.03 0.03 0.03 0.03 0.02 0.02 0.02 0.03 0.03 0.04 0.07 0.11 0.17 0.24 0.37 0.53